Flag for Cuba Weather past 2 weeks in Camagüey, Cuba

Now
88 °F

Scattered clouds.


Feels Like: 93 °F
Forecast: 75 / 88 °F
Wind: 14 mph from East

Location: Camaguey Aeropuerto

Current Time: Sep 2, 2014 at 1:39:14 PM

Latest Report: Sep 2, 2014 at 12:50 PM


Visibility: 6 mi

Pressure: 30.01 "Hg

Humidity: 55%

Dew point: 70 °F

Location of CamagüeyLocation

Historic Weather in Camagüey — Graph

°F

Camagüey temperature yesterday

Maximum temperature yesterday: 88 °F (at 11:50 AM)
Minimum temperature yesterday: 75 °F (at 12:50 AM)
Average temperature yesterday: 80 °F

Past Weeks' High & Low Weather Summary

 TemperatureHumidityPressure
High95 °F (Aug 18, 3:50 PM)94% (Aug 20, 2:50 AM)30.09 "Hg (Aug 20, 2:50 AM)
Low70 °F (Aug 18, 8:50 PM)30% (Aug 25, 1:52 PM)29.74 "Hg (Aug 24, 3:50 PM)
Average81 °F74%29.97 "Hg
* Reported Aug 18 11:55 AM — Sep 2 11:50 AM, Camagüey, Weather by CustomWeather, © 2014

Note: Actual official high and low records may vary slightly from our data, if they occured in-between our weather recording intervals... More about our weather records

Advertising

Camagüey weather history for previous 24 hours

 ConditionsComfort  
Time TempWeatherWind HumidityBarometerVisibility
11:50 AM
Sep 2
86 °FScattered clouds.14 mph59%30.04 "Hg6 mi
10:50 AM82 °FScattered clouds.13 mph70%30.04 "Hg6 mi
9:53 AM77 °FLight rain. Scattered clouds.10 mph83%30.04 "Hg4 mi
8:50 AM81 °FPassing clouds.9 mph79%30.04 "Hg6 mi
7:53 AM77 °FPassing clouds.7 mph89%30.04 "Hg6 mi
6:51 AM73 °FPassing clouds.6 mph94%30.01 "Hg6 mi
5:52 AM75 °FPassing clouds.7 mph89%30.01 "Hg6 mi
4:52 AM73 °FClear.6 mph94%30.01 "Hg6 mi
3:51 AM75 °FClear.6 mph89%30.01 "Hg6 mi
2:51 AM75 °FPassing clouds.7 mph89%30.01 "Hg6 mi
1:50 AM75 °FClear.7 mph89%30.04 "Hg6 mi
12:51 AM75 °FPassing clouds.7 mph89%30.04 "Hg6 mi
11:50 PM
Sep 1
77 °FPassing clouds.7 mph83%30.04 "Hg6 mi
10:51 PM77 °FPassing clouds.8 mph83%30.04 "Hg6 mi
9:55 PM77 °FPassing clouds.9 mph83%30.04 "Hg6 mi
8:50 PM79 °FPassing clouds.9 mph79%30.01 "Hg6 mi
7:50 PM79 °FPassing clouds.9 mph74%30.01 "Hg6 mi
6:51 PM82 °FPassing clouds.13 mph66%30.01 "Hg6 mi
5:50 PM84 °FScattered clouds.10 mph66%30.01 "Hg6 mi
4:50 PM88 °FThunderstorms. Partly sunny.16 mph52%29.98 "Hg6 mi
3:50 PM86 °FPartly sunny.14 mph59%30.01 "Hg6 mi
2:51 PM88 °FThunderstorms. Partly sunny.20 mph52%30.01 "Hg6 mi
1:50 PM88 °FScattered clouds.12 mph55%30.04 "Hg6 mi
Weather by CustomWeather, © 2014

See weather overviewHow to use our weather pages